datetime,pool elevation
1962-06-26,5720.0
1962-06-27,5744.0
1962-06-28,5765.5
1962-06-29,5767.7998
1962-06-30,5774.6001
1962-07-01,5781.0
1962-07-02,5785.0
1962-07-03,5788.7002
1962-07-04,5791.7002
1962-07-05,5794.5
1962-07-06,5796.3999
1962-07-07,5798.5
1962-07-08,5800.2998
1962-07-09,5801.5
1962-07-10,5802.7998
1962-07-11,5803.7002
1962-07-12,5804.2998
1962-07-13,5804.6001
1962-07-14,5805.0
1962-07-15,5805.5
1962-07-16,5805.7002
1962-07-17,5805.7998
1962-07-18,5805.7998
1962-07-19,5805.7998
1962-07-20,5805.7002
1962-07-21,5805.6001
1962-07-22,5805.3999
1962-07-23,5805.2002
1962-07-24,5805.0
1962-07-25,5805.0
1962-07-26,5805.2002
1962-07-27,5805.2002
1962-07-28,5805.2998
1962-07-29,5805.2998
1962-07-30,5805.2998
1962-07-31,5805.2002
1962-08-01,5805.0
1962-08-02,5804.8999
1962-08-03,5804.7002
1962-08-04,5804.3999
1962-08-05,5804.1001
1962-08-06,5803.7002
1962-08-07,5803.2998
1962-08-08,5802.8999
1962-08-09,5802.3999
1962-08-10,5801.8999
1962-08-11,5801.3999
1962-08-12,5800.8999
1962-08-13,5800.3999
1962-08-14,5800.0
1962-08-15,5799.7998
1962-08-16,5799.7998
1962-08-17,5800.0
1962-08-18,5800.0
1962-08-19,5800.0
1962-08-20,5800.0
1962-08-21,5800.0
1962-08-22,5800.0
1962-08-23,5800.0
1962-08-24,5800.0
1962-08-25,5800.0
1962-08-26,5800.0
1962-08-27,5800.0
1962-08-28,5800.0
1962-08-29,5800.0
1962-08-30,5800.0
1962-08-31,5800.0
1962-09-01,5800.0
1962-09-02,5800.0
1962-09-03,5799.8999
1962-09-04,5799.8999
1962-09-05,5799.7002
1962-09-06,5799.7002
1962-09-07,5799.7002
1962-09-08,5799.7002
1962-09-09,5799.7002
1962-09-10,5799.7002
1962-09-11,5799.7002
1962-09-12,5799.7002
1962-09-13,5799.6001
1962-09-14,5799.5
1962-09-15,5799.6001
1962-09-16,5799.7002
1962-09-17,5799.7998
1962-09-18,5799.8999
1962-09-19,5800.0
1962-09-20,5800.0
1962-09-21,5800.0
1962-09-22,5800.6001
1962-09-23,5801.5
1962-09-24,5802.0
1962-09-25,5802.5
1962-09-26,5802.8999
1962-09-27,5803.5
1962-09-28,5804.2002
1962-09-29,5805.0
1962-09-30,5805.8999
1962-10-01,5806.3999
1962-10-02,5806.7998
1962-10-03,5807.0
1962-10-04,5807.2998
1962-10-05,5807.5
1962-10-06,5807.7998
1962-10-07,5808.0
1962-10-08,5808.3999
1962-10-09,5808.5
1962-10-10,5808.7002
1962-10-11,5808.7998
1962-10-12,5808.8999
1962-10-13,5808.8999
1962-10-14,5808.8999
1962-10-15,5808.8999
1962-10-16,5808.8999
1962-10-17,5809.2002
1962-10-18,5811.0
1962-10-19,5813.2998
1962-10-20,5814.7002
1962-10-21,5816.1001
1962-10-22,5817.5
1962-10-23,5818.0
1962-10-24,5818.5
1962-10-25,5819.0
1962-10-26,5819.5
1962-10-27,5819.6001
1962-10-28,5819.7998
1962-10-29,5820.0
1962-10-30,5820.5
1962-10-31,5820.7998
1962-11-01,5821.0
1962-11-02,5821.2002
1962-11-03,5821.2998
1962-11-04,5821.5
1962-11-05,5821.7002
1962-11-06,5821.7998
1962-11-07,5821.7998
1962-11-08,5821.8999
1962-11-09,5821.8999
1962-11-10,5821.8999
1962-11-11,5822.0
1962-11-12,5822.0
1962-11-13,5822.0
1962-11-14,5822.0
1962-11-15,5822.2002
1962-11-16,5823.0
1962-11-17,5823.3999
1962-11-18,5823.7998
1962-11-19,5824.0
1962-11-20,5824.3999
1962-11-21,5824.5
1962-11-22,5824.6001
1962-11-23,5824.7998
1962-11-24,5824.8999
1962-11-25,5825.1001
1962-11-26,5825.3999
1962-11-27,5825.6001
1962-11-28,5825.7998
1962-11-29,5825.8999
1962-11-30,5826.0
1962-12-01,5826.2002
1962-12-02,5826.5
1962-12-03,5826.7998
1962-12-04,5827.0
1962-12-05,5827.2998
1962-12-06,5827.6001
1962-12-07,5827.7998
1962-12-08,5827.8999
1962-12-09,5828.0
1962-12-10,5828.2998
1962-12-11,5828.5
1962-12-12,5828.7002
1962-12-13,5828.7998
1962-12-14,5828.8999
1962-12-15,5829.0
1962-12-16,5829.1001
1962-12-17,5829.3999
1962-12-18,5829.5
1962-12-19,5829.7002
1962-12-20,5829.8999
1962-12-21,5830.0
1962-12-22,5830.2002
1962-12-23,5830.2998
1962-12-24,5830.3999
1962-12-25,5830.5
1962-12-26,5830.6001
1962-12-27,5830.7002
1962-12-28,5830.7002
1962-12-29,5830.7002
1962-12-30,5830.7002
1962-12-31,5830.7998
1963-01-01,5830.7998
1963-01-02,5830.7998
1963-01-03,5830.8999
1963-01-04,5831.1001
1963-01-05,5831.3999
1963-01-06,5831.5
1963-01-07,5831.7998
1963-01-08,5832.0
1963-01-09,5832.2002
1963-01-10,5832.3999
1963-01-11,5832.3999
1963-01-12,5832.5
1963-01-13,5832.6001
1963-01-14,5832.7002
1963-01-15,5832.7998
1963-01-16,5833.0
1963-01-17,5833.2002
1963-01-18,5833.2998
1963-01-19,5833.2998
1963-01-20,5833.3999
1963-01-21,5833.3999
1963-01-22,5833.6001
1963-01-23,5833.7002
1963-01-24,5834.0
1963-01-25,5834.2002
1963-01-26,5834.5
1963-01-27,5834.5
1963-01-28,5834.7998
1963-01-29,5834.8999
1963-01-30,5835.1001
1963-01-31,5835.2002
1963-02-01,5835.2998
1963-02-02,5835.8999
1963-02-03,5837.2998
1963-02-04,5838.5
1963-02-05,5839.6001
1963-02-06,5840.7998
1963-02-07,5842.0
1963-02-08,5842.7998
1963-02-09,5843.6001
1963-02-10,5844.3999
1963-02-11,5845.3999
1963-02-12,5845.6001
1963-02-13,5845.7002
1963-02-14,5846.0
1963-02-15,5846.2998
1963-02-16,5846.6001
1963-02-17,5846.8999
1963-02-18,5847.0
1963-02-19,5847.0
1963-02-20,5847.3999
1963-02-21,5847.6001
1963-02-22,5848.3999
1963-02-23,5848.5
1963-02-24,5848.7998
1963-02-25,5849.2002
1963-02-26,5849.5
1963-02-27,5849.7998
1963-02-28,5850.1001
1963-03-01,5850.3999
1963-03-02,5850.5
1963-03-03,5850.6001
1963-03-04,5850.7998
1963-03-05,5850.8999
1963-03-06,5851.0
1963-03-07,5851.0
1963-03-08,5851.0
1963-03-09,5851.3999
1963-03-10,5851.5
1963-03-11,5851.5
1963-03-12,5851.6001
1963-03-13,5851.7998
1963-03-14,5851.8999
1963-03-15,5852.0
1963-03-16,5852.1001
1963-03-17,5852.2002
1963-03-18,5852.2998
1963-03-19,5853.0
1963-03-20,5853.2998
1963-03-21,5854.0
1963-03-22,5855.3999
1963-03-23,5857.2998
1963-03-24,5859.2002
1963-03-25,5861.1001
1963-03-26,5862.8999
1963-03-27,5864.8999
1963-03-28,5866.7998
1963-03-29,5868.6001
1963-03-30,5870.7002
1963-03-31,5872.8999
1963-04-01,5875.0
1963-04-02,5876.7998
1963-04-03,5878.0
1963-04-04,5878.8999
1963-04-05,5879.8999
1963-04-06,5880.7998
1963-04-07,5881.7002
1963-04-08,5882.6001
1963-04-09,5884.45996
1963-04-10,5885.83984
1963-04-11,5886.89014
1963-04-12,5887.72998
1963-04-13,5888.1001
1963-04-14,5888.6001
1963-04-15,5889.25
1963-04-16,5889.99023
1963-04-17,5890.49023
1963-04-18,5890.74023
1963-04-19,5890.83008
1963-04-20,5891.27002
1963-04-21,5891.83008
1963-04-22,5892.29004
1963-04-23,5892.70996
1963-04-24,5893.12012
1963-04-25,5893.6499
1963-04-26,5894.33008
1963-04-27,5895.0498
1963-04-28,5895.83008
1963-04-29,5896.49023
1963-04-30,5897.06006
1963-05-01,5897.64014
1963-05-02,5898.27002
1963-05-03,5898.95996
1963-05-04,5899.68018
1963-05-05,5900.66992
1963-05-06,5901.87988
1963-05-07,5903.16992
1963-05-08,5904.72021
1963-05-09,5906.37988
1963-05-10,5907.99023
1963-05-11,5909.37012
1963-05-12,5910.81982
1963-05-13,5912.14014
1963-05-14,5913.37988
1963-05-15,5914.56006
1963-05-16,5915.74023
1963-05-17,5917.0
1963-05-18,5918.41016
1963-05-19,5919.72021
1963-05-20,5920.93018
1963-05-21,5922.08984
1963-05-22,5923.2002
1963-05-23,5924.2998
1963-05-24,5925.31006
1963-05-25,5926.27002
1963-05-26,5927.04004
1963-05-27,5927.75977
1963-05-28,5928.43018
1963-05-29,5929.0
1963-05-30,5929.43018
1963-05-31,5930.1001
1963-06-01,5930.66016
1963-06-02,5931.14014
1963-06-03,5931.60986
1963-06-04,5932.06006
1963-06-05,5932.43018
1963-06-06,5932.79004
1963-06-07,5933.14014
1963-06-08,5933.4502
1963-06-09,5933.75977
1963-06-10,5934.0498
1963-06-11,5934.31006
1963-06-12,5934.50977
1963-06-13,5934.68994
1963-06-14,5934.8999
1963-06-15,5935.10986
1963-06-16,5935.29004
1963-06-17,5935.4502
1963-06-18,5935.62988
1963-06-19,5935.77002
1963-06-20,5935.8999
1963-06-21,5936.04004
1963-06-22,5936.08984
1963-06-23,5936.16992
1963-06-24,5936.2002
1963-06-25,5936.2998
1963-06-26,5936.35986
1963-06-27,5936.37988
1963-06-28,5936.41992
1963-06-29,5936.41992
1963-06-30,5936.41992
1963-07-01,5936.41016
1963-07-02,5936.39014
1963-07-03,5936.39014
1963-07-04,5936.37988
1963-07-05,5936.37988
1963-07-06,5936.37988
1963-07-07,5936.3999
1963-07-08,5936.3999
1963-07-09,5936.4502
1963-07-10,5936.56006
1963-07-11,5936.77002
1963-07-12,5936.93018
1963-07-13,5937.18018
1963-07-14,5937.41992
1963-07-15,5937.52002
1963-07-16,5937.56006
1963-07-17,5937.58008
1963-07-18,5937.6001
1963-07-19,5937.6001
1963-07-20,5937.6001
1963-07-21,5937.6001
1963-07-22,5937.66992
1963-07-23,5937.68018
1963-07-24,5937.68018
1963-07-25,5937.66016
1963-07-26,5937.5498
1963-07-27,5937.43018
1963-07-28,5937.33984
1963-07-29,5937.25977
1963-07-30,5937.16016
1963-07-31,5937.06006
1963-08-01,5936.9502
1963-08-02,5936.83008
1963-08-03,5936.75
1963-08-04,5936.70996
1963-08-05,5936.74023
1963-08-06,5936.75977
1963-08-07,5936.75977
1963-08-08,5936.77002
1963-08-09,5936.77979
1963-08-10,5936.79004
1963-08-11,5936.81982
1963-08-12,5936.91016
1963-08-13,5936.97021
1963-08-14,5937.00977
1963-08-15,5937.04004
1963-08-16,5937.06006
1963-08-17,5937.08008
1963-08-18,5937.08008
1963-08-19,5937.10986
1963-08-20,5937.14014
1963-08-21,5937.18994
1963-08-22,5937.2002
1963-08-23,5937.20996
1963-08-24,5937.24023
1963-08-25,5937.27979
1963-08-26,5937.29004
1963-08-27,5937.68994
1963-08-28,5937.91992
1963-08-29,5938.06006
1963-08-30,5938.12988
1963-08-31,5938.22998
1963-09-01,5938.31982
1963-09-02,5938.3999
1963-09-03,5938.49023
1963-09-04,5938.54004
1963-09-05,5938.56006
1963-09-06,5938.66016
1963-09-07,5938.7998
1963-09-08,5938.91992
1963-09-09,5938.97021
1963-09-10,5939.00977
1963-09-11,5939.00977
1963-09-12,5939.02979
1963-09-13,5939.02979
1963-09-14,5939.04004
1963-09-15,5939.08008
1963-09-16,5939.10986
1963-09-17,5939.12012
1963-09-18,5939.12988
1963-09-19,5939.12988
1963-09-20,5939.14014
1963-09-21,5939.29004
1963-09-22,5939.47998
1963-09-23,5939.66992
1963-09-24,5939.81982
1963-09-25,5939.8999
1963-09-26,5939.97998
1963-09-27,5940.0498
1963-09-28,5940.10986
1963-09-29,5940.18018
1963-09-30,5940.25
1963-10-01,5940.27002
1963-10-02,5940.29004
1963-10-03,5940.2998
1963-10-04,5940.27979
1963-10-05,5940.24023
1963-10-06,5940.2002
1963-10-07,5940.16992
1963-10-08,5940.14014
1963-10-09,5940.12012
1963-10-10,5940.10986
1963-10-11,5940.0498
1963-10-12,5939.93018
1963-10-13,5939.87012
1963-10-14,5939.77979
1963-10-15,5939.7002
1963-10-16,5939.62012
1963-10-17,5939.5498
1963-10-18,5939.49023
1963-10-19,5939.4502
1963-10-20,5939.75977
1963-10-21,5939.97998
1963-10-22,5940.04004
1963-10-23,5940.08008
1963-10-24,5940.06982
1963-10-25,5940.0498
1963-10-26,5940.04004
1963-10-27,5940.0
1963-10-28,5939.91992
1963-10-29,5939.83008
1963-10-30,5939.75977
1963-10-31,5939.6499
1963-11-01,5939.56006
1963-11-02,5939.45996
1963-11-03,5939.37988
1963-11-04,5939.27002
1963-11-05,5939.16992
1963-11-06,5939.08008
1963-11-07,5938.99023
1963-11-08,5938.89014
1963-11-09,5938.77979
1963-11-10,5938.68018
1963-11-11,5938.58984
1963-11-12,5938.47998
1963-11-13,5938.35986
1963-11-14,5938.27002
1963-11-15,5938.1499
1963-11-16,5938.08008
1963-11-17,5937.91016
1963-11-18,5937.81006
1963-11-19,5937.68994
1963-11-20,5937.52979
1963-11-21,5937.41992
1963-11-22,5937.3501
1963-11-23,5937.25
1963-11-24,5937.10986
1963-11-25,5937.02002
1963-11-26,5936.93018
1963-11-27,5936.81982
1963-11-28,5936.68018
1963-11-29,5936.56982
1963-11-30,5936.45996
1963-12-01,5936.37988
1963-12-02,5936.20996
1963-12-03,5936.06982
1963-12-04,5935.93018
1963-12-05,5935.7998
1963-12-06,5935.6499
1963-12-07,5935.47021
1963-12-08,5935.31982
1963-12-09,5935.2002
1963-12-10,5935.02002
1963-12-11,5934.91016
1963-12-12,5934.75977
1963-12-13,5934.62988
1963-12-14,5934.49023
1963-12-15,5934.31982
1963-12-16,5934.14014
1963-12-17,5934.0
1963-12-18,5933.8501
1963-12-19,5933.72998
1963-12-20,5933.60986
1963-12-21,5933.4502
1963-12-22,5933.33008
1963-12-23,5933.22021
1963-12-24,5933.06982
1963-12-25,5932.91992
1963-12-26,5932.75977
1963-12-27,5932.66016
1963-12-28,5932.5
1963-12-29,5932.33984
1963-12-30,5932.22021
1963-12-31,5932.1001
1964-01-01,5931.97998
1964-01-02,5931.81982
1964-01-03,5931.66992
1964-01-04,5931.52002
1964-01-05,5931.37012
1964-01-06,5931.25977
1964-01-07,5931.08008
1964-01-08,5930.87988
1964-01-09,5930.74023
1964-01-10,5930.66992
1964-01-11,5930.56982
1964-01-12,5930.50977
1964-01-13,5930.41992
1964-01-14,5930.37012
1964-01-15,5930.2998
1964-01-16,5930.22998
1964-01-17,5930.12012
1964-01-18,5930.0498
1964-01-19,5929.97021
1964-01-20,5929.9502
1964-01-21,5929.8501
1964-01-22,5929.7998
1964-01-23,5929.75
1964-01-24,5929.70996
1964-01-25,5929.62988
1964-01-26,5929.58008
1964-01-27,5929.54004
1964-01-28,5929.47021
1964-01-29,5929.43994
1964-01-30,5929.3999
1964-01-31,5929.3501
1964-02-01,5929.2998
1964-02-02,5929.25
1964-02-03,5929.20996
1964-02-04,5929.16992
1964-02-05,5929.12012
1964-02-06,5929.06982
1964-02-07,5929.02002
1964-02-08,5928.9502
1964-02-09,5928.8999
1964-02-10,5928.8501
1964-02-11,5928.81006
1964-02-12,5928.75977
1964-02-13,5928.75
1964-02-14,5928.70996
1964-02-15,5928.66992
1964-02-16,5928.62012
1964-02-17,5928.56006
1964-02-18,5928.49023
1964-02-19,5928.4502
1964-02-20,5928.41992
1964-02-21,5928.37988
1964-02-22,5928.31982
1964-02-23,5928.27979
1964-02-24,5928.24023
1964-02-25,5928.18994
1964-02-26,5928.16992
1964-02-27,5928.08984
1964-02-28,5928.08008
1964-02-29,5928.00977
1964-03-01,5927.97021
1964-03-02,5927.91992
1964-03-03,5927.91016
1964-03-04,5927.87988
1964-03-05,5927.87012
1964-03-06,5927.77979
1964-03-07,5927.72021
1964-03-08,5927.72021
1964-03-09,5927.7002
1964-03-10,5927.70996
1964-03-11,5927.74023
1964-03-12,5927.77979
1964-03-13,5927.81006
1964-03-14,5927.7998
1964-03-15,5927.79004
1964-03-16,5927.77002
1964-03-17,5927.75977
1964-03-18,5927.77002
1964-03-19,5927.81982
1964-03-20,5927.93018
1964-03-21,5927.99023
1964-03-22,5928.0498
1964-03-23,5928.16992
1964-03-24,5928.22998
1964-03-25,5928.25
1964-03-26,5928.25977
1964-03-27,5928.25977
1964-03-28,5928.25977
1964-03-29,5928.31982
1964-03-30,5928.50977
1964-03-31,5928.89014
1964-04-01,5929.27002
1964-04-02,5929.77002
1964-04-03,5930.14014
1964-04-04,5930.2998
1964-04-05,5930.43018
1964-04-06,5930.6001
1964-04-07,5930.72998
1964-04-08,5930.8501
1964-04-09,5930.93018
1964-04-10,5931.06006
1964-04-11,5931.18994
1964-04-12,5931.35986
1964-04-13,5931.64014
1964-04-14,5931.91016
1964-04-15,5932.31982
1964-04-16,5932.87988
1964-04-17,5933.5498
1964-04-18,5934.16016
1964-04-19,5934.6499
1964-04-20,5935.0
1964-04-21,5935.33984
1964-04-22,5935.58008
1964-04-23,5935.91016
1964-04-24,5936.2998
1964-04-25,5936.75977
1964-04-26,5937.2002
1964-04-27,5937.45996
1964-04-28,5937.72021
1964-04-29,5938.0
1964-04-30,5938.56982
1964-05-01,5938.8501
1964-05-02,5939.14014
1964-05-03,5939.3999
1964-05-04,5939.62988
1964-05-05,5939.81006
1964-05-06,5940.02979
1964-05-07,5940.27002
1964-05-08,5940.43994
1964-05-09,5940.6499
1964-05-10,5940.7998
1964-05-11,5941.12988
1964-05-12,5941.5
1964-05-13,5942.08008
1964-05-14,5942.81982
1964-05-15,5943.83984
1964-05-16,5944.87988
1964-05-17,5946.16016
1964-05-18,5947.52979
1964-05-19,5948.89014
1964-05-20,5950.02979
1964-05-21,5951.24023
1964-05-22,5952.41016
1964-05-23,5953.72998
1964-05-24,5954.85986
1964-05-25,5956.08984
1964-05-26,5957.2002
1964-05-27,5958.31982
1964-05-28,5959.16992
1964-05-29,5959.97998
1964-05-30,5960.81982
1964-05-31,5961.35986
1964-06-01,5961.91016
1964-06-02,5962.31982
1964-06-03,5962.70996
1964-06-04,5963.1499
1964-06-05,5963.6499
1964-06-06,5964.20996
1964-06-07,5964.62988
1964-06-08,5965.04004
1964-06-09,5965.37988
1964-06-10,5965.47021
1964-06-11,5965.56006
1964-06-12,5965.56006
1964-06-13,5965.52979
1964-06-14,5965.4502
1964-06-15,5965.37012
1964-06-16,5965.14014
1964-06-17,5964.83008
1964-06-18,5964.52979
1964-06-19,5964.25977
1964-06-20,5963.91992
1964-06-21,5963.68018
1964-06-22,5963.33008
1964-06-23,5962.97998
1964-06-24,5962.6001
1964-06-25,5962.20996
1964-06-26,5961.83984
1964-06-27,5961.41992
1964-06-28,5961.00977
1964-06-29,5960.64014
1964-06-30,5960.22021
1964-07-01,5959.83008
1964-07-02,5959.41992
1964-07-03,5959.0
1964-07-04,5958.54004
1964-07-05,5958.20996
1964-07-06,5957.66992
1964-07-07,5957.18994
1964-07-08,5956.77002
1964-07-09,5956.22998
1964-07-10,5955.7998
1964-07-11,5955.47021
1964-07-12,5955.16992
1964-07-13,5954.85986
1964-07-14,5954.52002
1964-07-15,5954.16992
1964-07-16,5953.74023
1964-07-17,5953.37012
1964-07-18,5952.97021
1964-07-19,5952.52002
1964-07-20,5952.02979
1964-07-21,5951.5
1964-07-22,5951.0
1964-07-23,5950.5
1964-07-24,5950.02979
1964-07-25,5949.52979
1964-07-26,5949.08008
1964-07-27,5948.56982
1964-07-28,5948.02002
1964-07-29,5947.3999
1964-07-30,5947.0
1964-07-31,5946.58984
1964-08-01,5946.47021
1964-08-02,5946.64014
1964-08-03,5947.02979
1964-08-04,5947.08008
1964-08-05,5947.27979
1964-08-06,5946.91992
1964-08-07,5946.79004
1964-08-08,5946.77002
1964-08-09,5946.97998
1964-08-10,5947.08984
1964-08-11,5947.39014
1964-08-12,5948.31006
1964-08-13,5949.27002
1964-08-14,5949.91016
1964-08-15,5950.27979
1964-08-16,5950.35986
1964-08-17,5950.68018
1964-08-18,5950.81982
1964-08-19,5950.87988
1964-08-20,5950.93018
1964-08-21,5950.89014
1964-08-22,5950.68018
1964-08-23,5950.58984
1964-08-24,5950.52002
1964-08-25,5950.41992
1964-08-26,5950.20996
1964-08-27,5950.14014
1964-08-28,5950.12012
1964-08-29,5950.1001
1964-08-30,5950.06006
1964-08-31,5950.00977
1964-09-01,5949.9502
1964-09-02,5949.89014
1964-09-03,5949.83008
1964-09-04,5949.77002
1964-09-05,5949.72021
1964-09-06,5949.68018
1964-09-07,5949.68018
1964-09-08,5949.6499
1964-09-09,5949.62988
1964-09-10,5949.75977
1964-09-11,5949.77002
1964-09-12,5949.75
1964-09-13,5949.68018
1964-09-14,5949.68994
1964-09-15,5949.77002
1964-09-16,5949.8501
1964-09-17,5949.91016
1964-09-18,5949.8999
1964-09-19,5949.89014
1964-09-20,5949.87012
1964-09-21,5950.0
1964-09-22,5950.06982
1964-09-23,5950.1499
1964-09-24,5950.2002
1964-09-25,5950.24023
1964-09-26,5950.2998
1964-09-27,5950.33984
1964-09-28,5950.43018
1964-09-29,5950.47021
1964-09-30,5950.47021
1964-10-01,5950.49023
1964-10-02,5950.47998
1964-10-03,5950.45996
1964-10-04,5950.41992
1964-10-05,5950.37988
1964-10-06,5950.3501
1964-10-07,5950.27979
1964-10-08,5950.22021
1964-10-09,5950.18018
1964-10-10,5950.12012
1964-10-11,5950.04004
1964-10-12,5949.97021
1964-10-13,5949.8999
1964-10-14,5949.8501
1964-10-15,5949.77979
1964-10-16,5949.72998
1964-10-17,5949.66992
1964-10-18,5949.6001
1964-10-19,5949.52002
1964-10-20,5949.3999
1964-10-21,5949.33008
1964-10-22,5949.22998
1964-10-23,5949.12988
1964-10-24,5949.02002
1964-10-25,5948.91992
1964-10-26,5948.83984
1964-10-27,5948.75
1964-10-28,5948.6499
1964-10-29,5948.56006
1964-10-30,5948.47021
1964-10-31,5948.37012
1964-11-01,5948.27002
1964-11-02,5948.2998
1964-11-03,5948.22998
1964-11-04,5948.16016
1964-11-05,5948.08984
1964-11-06,5947.99023
1964-11-07,5947.8999
1964-11-08,5947.83008
1964-11-09,5947.74023
1964-11-10,5947.66016
1964-11-11,5947.58984
1964-11-12,5947.54004
1964-11-13,5947.43994
1964-11-14,5947.41992
1964-11-15,5947.41992
1964-11-16,5947.35986
1964-11-17,5947.33984
1964-11-18,5947.33984
1964-11-19,5947.33008
1964-11-20,5947.27979
1964-11-21,5947.2002
1964-11-22,5947.10986
1964-11-23,5947.0498
1964-11-24,5946.97998
1964-11-25,5946.93994
1964-11-26,5946.8999
1964-11-27,5946.87012
1964-11-28,5946.81982
1964-11-29,5946.75
1964-11-30,5946.7002
1964-12-01,5946.66016
1964-12-02,5946.6499
1964-12-03,5946.64014
1964-12-04,5946.6001
1964-12-05,5946.6001
1964-12-06,5946.56006
1964-12-07,5946.47998
1964-12-08,5946.41992
1964-12-09,5946.31982
1964-12-10,5946.27979
1964-12-11,5946.22021
1964-12-12,5946.16992
1964-12-13,5946.1001
1964-12-14,5946.00977
1964-12-15,5945.91992
1964-12-16,5945.85986
1964-12-17,5945.79004
1964-12-18,5945.66016
1964-12-19,5945.62012
1964-12-20,5945.52002
1964-12-21,5945.43994
1964-12-22,5945.29004
1964-12-23,5945.0
1964-12-24,5944.75
1964-12-25,5944.52979
1964-12-26,5944.25977
1964-12-27,5944.02002
1964-12-28,5943.89014
1964-12-29,5943.75977
1964-12-30,5943.45996
1964-12-31,5943.22021
1965-01-01,5942.95996
1965-01-02,5942.7002
1965-01-03,5942.39014
1965-01-04,5942.18018
1965-01-05,5942.0
1965-01-06,5941.7998
1965-01-07,5941.50977
1965-01-08,5941.74023
1965-01-09,5941.56006
1965-01-10,5941.35986
1965-01-11,5941.0498
1965-01-12,5940.62988
1965-01-13,5940.18018
1965-01-14,5939.56006
1965-01-15,5938.93994
1965-01-16,5938.33008
1965-01-17,5937.7002
1965-01-18,5937.08008
1965-01-19,5936.47998
1965-01-20,5935.87988
1965-01-21,5935.37012
1965-01-22,5934.68018
1965-01-23,5934.0498
1965-01-24,5933.41016
1965-01-25,5932.68994
1965-01-26,5932.0498
1965-01-27,5931.33984
1965-01-28,5930.66016
1965-01-29,5930.02002
1965-01-30,5929.35986
1965-01-31,5928.77002
1965-02-01,5928.22021
1965-02-02,5927.72998
1965-02-03,5926.93018
1965-02-04,5926.33008
1965-02-05,5925.68018
1965-02-06,5925.16016
1965-02-07,5924.64014
1965-02-08,5924.06982
1965-02-09,5923.47021
1965-02-10,5922.79004
1965-02-11,5922.1001
1965-02-12,5921.39014
1965-02-13,5920.62988
1965-02-14,5919.89014
1965-02-15,5919.16992
1965-02-16,5918.58984
1965-02-17,5917.87012
1965-02-18,5917.18018
1965-02-19,5916.47998
1965-02-20,5915.77002
1965-02-21,5915.33008
1965-02-22,5914.8501
1965-02-23,5914.37988
1965-02-24,5913.87012
1965-02-25,5913.27979
1965-02-26,5912.72998
1965-02-27,5912.27002
1965-02-28,5911.75977
1965-03-01,5911.31982
1965-03-02,5910.77002
1965-03-03,5910.16992
1965-03-04,5909.5498
1965-03-05,5908.93018
1965-03-06,5908.33008
1965-03-07,5907.7002
1965-03-08,5907.24023
1965-03-09,5906.72998
1965-03-10,5906.37988
1965-03-11,5906.35986
1965-03-12,5906.43994
1965-03-13,5906.52002
1965-03-14,5906.5498
1965-03-15,5906.58008
1965-03-16,5906.68018
1965-03-17,5906.75
1965-03-18,5906.83008
1965-03-19,5906.8501
1965-03-20,5906.83008
1965-03-21,5906.81006
1965-03-22,5906.83984
1965-03-23,5906.87012
1965-03-24,5907.08984
1965-03-25,5907.27002
1965-03-26,5907.33008
1965-03-27,5907.33008
1965-03-28,5907.39014
1965-03-29,5907.62988
1965-03-30,5907.91992
1965-03-31,5908.52002
1965-04-01,5909.41992
1965-04-02,5910.56006
1965-04-03,5911.16016
1965-04-04,5911.72021
1965-04-05,5912.47021
1965-04-06,5912.87988
1965-04-07,5913.7002
1965-04-08,5914.2002
1965-04-09,5914.79004
1965-04-10,5915.18018
1965-04-11,5915.31006
1965-04-12,5915.1001
1965-04-13,5915.16016
1965-04-14,5915.37012
1965-04-15,5915.52979
1965-04-16,5916.25
1965-04-17,5917.62012
1965-04-18,5919.52002
1965-04-19,5921.47021
1965-04-20,5923.7002
1965-04-21,5926.12988
1965-04-22,5929.02979
1965-04-23,5932.27979
1965-04-24,5935.12012
1965-04-25,5937.27002
1965-04-26,5938.74023
1965-04-27,5939.87012
1965-04-28,5940.62988
1965-04-29,5941.31982
1965-04-30,5942.22998
1965-05-01,5943.81982
1965-05-02,5946.12988
1965-05-03,5948.37012
1965-05-04,5950.68018
1965-05-05,5952.52979
1965-05-06,5954.02979
1965-05-07,5954.97021
1965-05-08,5956.54004
1965-05-09,5957.45996
1965-05-10,5958.27002
1965-05-11,5958.87012
1965-05-12,5959.5
1965-05-13,5960.12012
1965-05-14,5960.91992
1965-05-15,5961.77002
1965-05-16,5962.35986
1965-05-17,5963.20996
1965-05-18,5964.74023
1965-05-19,5966.47998
1965-05-20,5968.16992
1965-05-21,5970.06982
1965-05-22,5972.10986
1965-05-23,5973.68994
1965-05-24,5974.81982
1965-05-25,5975.43018
1965-05-26,5975.81982
1965-05-27,5976.02979
1965-05-28,5976.06982
1965-05-29,5976.10986
1965-05-30,5976.39014
1965-05-31,5977.02979
1965-06-01,5977.97021
1965-06-02,5978.75977
1965-06-03,5979.64014
1965-06-04,5979.97998
1965-06-05,5980.18994
1965-06-06,5980.87012
1965-06-07,5982.12012
1965-06-08,5983.2998
1965-06-09,5984.70996
1965-06-10,5985.75
1965-06-11,5986.81982
1965-06-12,5987.72021
1965-06-13,5988.56982
1965-06-14,5989.74023
1965-06-15,5990.81982
1965-06-16,5991.50977
1965-06-17,5991.99023
1965-06-18,5992.77002
1965-06-19,5993.77979
1965-06-20,5994.45996
1965-06-21,5995.04004
1965-06-22,5995.58984
1965-06-23,5996.16016
1965-06-24,5996.83008
1965-06-25,5997.58008
1965-06-26,5997.89014
1965-06-27,5998.14014
1965-06-28,5998.10986
1965-06-29,5998.25977
1965-06-30,5998.62988
1965-07-01,5998.8501
1965-07-02,5999.16016
1965-07-03,5999.99023
1965-07-04,6000.72998
1965-07-05,6001.12012
1965-07-06,6001.35986
1965-07-07,6001.49023
1965-07-08,6001.72021
1965-07-09,6001.89014
1965-07-10,6002.41016
1965-07-11,6003.49023
1965-07-12,6004.33984
1965-07-13,6005.25977
1965-07-14,6005.99023
1965-07-15,6006.75977
1965-07-16,6007.27979
1965-07-17,6007.8999
1965-07-18,6008.56006
1965-07-19,6009.08008
1965-07-20,6009.56006
1965-07-21,6010.02979
1965-07-22,6010.41992
1965-07-23,6010.77979
1965-07-24,6011.12988
1965-07-25,6011.22998